Location: Unspecified
(0.0000°N, 0.0000°E)
Time: 11:42:14
(UTC+00:00)

SRMSAT - Visible Passes

Search period start: 29 May 2020 00:00
Search period end: 08 June 2020 00:00
Orbit: 848 x 866 km, 20.0° (Epoch: 29 May)

Date Brightness Start Highest point End Pass type
(mag) Time Alt. Az. Time Alt. Az. Time Alt. Az.
29 May ? 03:34:16 24° SE 03:34:16 24° SE 03:36:38 10° SE visible
29 May ? 05:16:17 11° WSW 05:20:19 21° SSW 05:24:44 10° SSE visible
30 May ? 03:22:35 15° SE 03:22:35 15° SE 03:23:33 10° SE visible
30 May ? 05:04:36 14° SW 05:07:24 19° SSW 05:11:33 10° SSE visible
31 May ? 04:52:51 16° SSW 04:54:30 17° SSW 04:58:21 10° SSE visible
01 Jun ? 04:41:02 16° SSW 04:41:36 16° SSW 04:45:08 10° SSE visible
01 Jun ? 21:07:10 10° NNW 21:07:49 12° NNW 21:07:49 12° NNW visible
02 Jun ? 04:29:09 14° S 04:29:09 14° S 04:31:55 10° SSE visible
02 Jun ? 19:07:03 10° N 19:07:48 10° N 19:08:31 10° NNE visible
02 Jun ? 20:53:58 10° NNW 20:55:33 15° NNW 20:55:33 15° NNW visible
03 Jun ? 04:17:13 13° S 04:17:13 13° S 04:18:41 10° SSE visible
03 Jun ? 18:53:37 10° N 18:54:57 11° N 18:56:18 10° NNE visible
03 Jun ? 20:40:46 10° NNW 20:43:17 18° N 20:43:17 18° N visible
04 Jun ? 04:05:13 10° SSE 04:05:13 10° SSE 04:05:28 10° SSE visible
04 Jun ? 18:40:16 10° N 18:42:07 11° N 18:43:57 10° NNE visible
04 Jun ? 20:27:36 10° NNW 20:31:01 21° N 20:31:01 21° N visible
05 Jun ? 18:26:59 10° NNW 18:29:16 12° N 18:31:33 10° NNE visible
05 Jun ? 20:14:25 10° NW 20:18:46 24° NNE 20:18:46 24° NNE visible
06 Jun ? 05:26:32 10° S 05:27:43 11° S 05:28:54 10° SSE visible
06 Jun ? 20:01:16 10° NW 20:06:13 27° NNE 20:06:31 27° NNE visible
07 Jun ? 05:13:15 10° S 05:14:52 11° S 05:16:29 10° SSE visible
07 Jun ? 19:48:07 10° NW 19:53:16 31° NNE 19:54:16 29° NE visible
